Home   Weather   Pierre   Past weeks
Flag for USA

Past Weather in Pierre, South Dakota, USA — Yesterday and Last 2 Weeks

Now
45 °F

Rain. Fog.


Feels Like: 35 °F
Forecast: 49 / 42 °F
Wind: 32 mph from East

Location: Pierre Regional Airport

Current Time: May 21, 2019 at 9:48:20 pm

Latest Report: May 21, 2019 at 8:53 pm


Visibility: 3 mi

Pressure: 29.58 "Hg

Humidity: 93%

Dew Point: 43 °F

Location of PierreLocation

Past Weather in Pierre — Graph

°F

Pierre Temperature Yesterday

Maximum temperature yesterday: 48 °F (at 12:53 pm)
Minimum temperature yesterday: 35 °F (at 3:53 am)
Average temperature yesterday: 43 °F

High & Low Weather Summary for the Past Weeks

 TemperatureHumidityPressure
High86 °F (May 15, 3:53 pm)100% (May 20, 1:53 am)30.29 "Hg (May 20, 1:53 am)
Low33 °F (May 10, 5:53 am)29% (May 10, 3:53 pm)29.45 "Hg (May 17, 10:53 pm)
Average50 °F77%29.89 "Hg
* Reported May 6 8:53 pm — May 21 8:30 pm, Pierre. Weather by CustomWeather, © 2019

Note: Actual official high and low records may vary slightly from our data, if they occured in-between our weather recording intervals... More about our weather records

Advertising

Pierre Weather History for the Previous 24 Hours

Scroll right to see more
 ConditionsComfort  
Time TempWeatherWind HumidityBarometerVisibility
8:30 pm
Tue, May 21
46 °FRain. Fog.23 mph93%29.58 "Hg4 mi
8:20 pm46 °FRain. Fog.23 mph93%29.57 "Hg3 mi
8:00 pm46 °FRain. Fog.25 mph93%29.57 "Hg4 mi
6:53 pm47 °FRain. Fog.28 mph90%29.60 "Hg3 mi
5:53 pm47 °FRain. Fog.26 mph90%29.62 "Hg5 mi
4:53 pm47 °FLight rain. Fog.29 mph90%29.63 "Hg4 mi
4:22 pm46 °FRain. Fog.31 mph93%29.64 "Hg3 mi
4:00 pm46 °FRain. Fog.28 mph93%29.66 "Hg3 mi
3:37 pm46 °FRain. Fog.26 mph93%29.68 "Hg3 mi
3:12 pm47 °FLight rain. Fog.24 mph93%29.69 "Hg3 mi
2:53 pm46 °FLight rain. Fog.23 mph93%29.72 "Hg4 mi
2:30 pm46 °FRain. Fog.25 mph93%29.72 "Hg3 mi
2:11 pm46 °FLight rain. Fog.22 mph89%29.74 "Hg4 mi
1:53 pm46 °FRain. Fog.21 mph89%29.76 "Hg4 mi
1:33 pm45 °FRain. Fog.20 mph93%29.76 "Hg4 mi
1:10 pm46 °FRain. Fog.23 mph89%29.77 "Hg3 mi
1:03 pm46 °FRain. Fog.20 mph93%29.78 "Hg3 mi
11:53 am46 °FRain. Fog.20 mph89%29.81 "Hg4 mi
10:53 am47 °FLight rain. Overcast.17 mph83%29.82 "Hg10 mi
9:53 am47 °FLight rain. Overcast.18 mph86%29.84 "Hg10 mi
8:53 am47 °FLight rain. Overcast.17 mph83%29.87 "Hg10 mi
7:53 am46 °FOvercast.14 mph89%29.89 "Hg10 mi
6:53 am46 °FOvercast.14 mph89%29.89 "Hg10 mi
5:53 am46 °FOvercast.13 mph89%29.91 "Hg10 mi
4:53 am46 °FLight rain. Mostly cloudy.13 mph89%29.92 "Hg10 mi
3:53 am45 °FLight rain. Overcast.14 mph90%29.95 "Hg10 mi
2:53 am45 °FLight rain. Mostly cloudy.13 mph90%29.97 "Hg10 mi
1:53 am45 °FLight rain. Overcast.9 mph90%30.01 "Hg10 mi
12:53 am45 °FLight rain. Overcast.7 mph93%30.03 "Hg10 mi
11:53 pm
Mon, May 20
44 °FLight rain. Overcast.7 mph96%30.04 "Hg10 mi
10:53 pm44 °FLight rain. Fog.5 mph93%30.06 "Hg6 mi
9:53 pm44 °FLight rain. Overcast.No wind96%30.06 "Hg10 mi
Weather by CustomWeather, © 2019

See weather overview